Regional Weather Roundup
Issued by NWS

Home | Current Version | Previous Version | Graphics & Text | Print | Product List | Glossary On
Versions: 1 2 3 4 5 6 7 8 9 10 11 12 13 14 15 16 17 18 19 20 21 22 23 24 25 26 27 28 29 30 31 32 33 34 35 36 37 38 39 40 41 42 43 44 45 46 47 48 49 50
000
ASUS43 KMKX 301221
RWRWI

WISCONSIN REGIONAL WEATHER ROUNDUP
NATIONAL WEATHER SERVICE MILWAUKEE/SULLIVAN WI
700 AM CDT TUE JUN 30 2015

NOTE: "FAIR" INDICATES FEW OR NO CLOUDS BELOW 12,000 FEET WITH NO
SIGNIFICANT WEATHER AND/OR OBSTRUCTIONS TO VISIBILITY.

WIZ001-002-006>008-014>016-023>028-301300-
NORTHWEST WISCONSIN

CITY           SKY/WX    TMP DP  RH WIND       PRES   REMARKS
SUPERIOR ARPT  CLOUDY    60  55  84 E13G18    29.95R
6HR MIN TEMP:  56; 6HR MAX TEMP:  62;

ASHLAND        CLOUDY    53  53 100 NE12      29.96R FOG
6HR MIN TEMP:  53; 6HR MAX TEMP:  60;

HAYWARD        CLOUDY    56  54  93 N8        29.93R
6HR MIN TEMP:  54; 6HR MAX TEMP:  59;

SIREN          PTSUNNY   57  57  97 CALM      29.92R FOG
6HR MIN TEMP:  54; 6HR MAX TEMP:  59;

CUMBERLAND     CLOUDY    59  55  88 CALM      29.92R
RICE LAKE      CLOUDY    60  58  94 CALM      29.92S
6HR MIN TEMP:  57; 6HR MAX TEMP:  60; 6HR PCP:  0.01;

CHETEK         CLOUDY    60  58  91 NE3       29.91R
6HR MIN TEMP:  56; 6HR MAX TEMP:  60;

LADYSMITH      CLOUDY    60  58  92 N8        29.92R
6HR MIN TEMP:  59; 6HR MAX TEMP:  61;

EAU CLAIRE     CLOUDY    60  58  92 NE6       29.89R
6HR MIN TEMP:  52; 6HR MAX TEMP:  60;

MENOMONIE      CLOUDY    60  59  97 NE7       29.90R
6HR MIN TEMP:  58; 6HR MAX TEMP:  60;

NEW RICHMOND   SUNNY     60  60 100 NE3       29.91R FOG
6HR MIN TEMP:  58; 6HR MAX TEMP:  60;

OSCEOLA        MOSUNNY   59  59 100 CALM      29.94R FOG
6HR MIN TEMP:  58; 6HR MAX TEMP:  61; 6HR PCP:  0.01;

$$

WIZ003>005-009-010-017-018-301300-
NORTH CENTRAL WISCONSIN

CITY           SKY/WX    TMP DP  RH WIND       PRES   REMARKS
MANITOWISH WTR LGT RAIN  51  51 100 N6        29.91S
6HR MIN TEMP:  51; 6HR MAX TEMP:  59;

ARBOR VITAE    CLOUDY    55  52  90 N12G17    29.91R
6HR MIN TEMP:  55; 6HR MAX TEMP:  60;

WOODRUFF       CLOUDY    55  52  90 N12G17    29.91R
6HR MIN TEMP:  55; 6HR MAX TEMP:  60;

RHINELANDER    CLOUDY    56  52  86 N8        29.90R
6HR MIN TEMP:  56; 6HR MAX TEMP:  59;

EAGLE RIVER    CLOUDY    53  53  99 N8        29.89R FOG
6HR MIN TEMP:  53; 6HR MAX TEMP:  60;

LAND O LAKES   RAIN      52  51  96 N8        29.91R
6HR MIN TEMP:  52; 6HR MAX TEMP:  60; 6HR PCP:  0.01;

PHILLIPS       CLOUDY    56  54  93 N12G17    29.90R
6HR MIN TEMP:  56; 6HR MAX TEMP:  58;

TOMAHAWK       CLOUDY    56  54  92 N6        29.90R
6HR MIN TEMP:  56; 6HR MAX TEMP:  58;

MEDFORD        CLOUDY    58  57  94 N6        29.89R
6HR MIN TEMP:  56; 6HR MAX TEMP:  58;

MERRILL        PTSUNNY   61  57  88 NE6       29.88R
$$

WIZ029-030-035-036-043>047-301300-
CENTRAL WISCONSIN

CITY           SKY/WX    TMP DP  RH WIND       PRES   REMARKS
WAUSAU         MOSUNNY   62  57  83 N10       29.84R
6HR MIN TEMP:  60; 6HR MAX TEMP:  62;

MOSINEE        NOT AVBL
MARSHFIELD     PTSUNNY   61  56  83 N8        29.87R HAZE
6HR MIN TEMP:  58; 6HR MAX TEMP:  61;

STEVENS POINT  SUNNY     59  57  92 N5        29.85R
6HR MIN TEMP:  55; 6HR MAX TEMP:  59;

WAUPACA        PTSUNNY   61  61  99 N6        29.83R
6HR MIN TEMP:  59; 6HR MAX TEMP:  61;

WAUTOMA        SUNNY     62  62 100 CALM      29.84R FOG
6HR MIN TEMP:  57; 6HR MAX TEMP:  61;

WISC RAPIDS    CLOUDY    62  58  86 N6        29.87R
6HR MIN TEMP:  56; 6HR MAX TEMP:  62;

CAMP DOUGLAS   FOG       57  57 100 NW6       29.86R VSB 1/2
$$

WIZ011>013-019>022-031-037>040-048>050-301300-
NORTHEAST WISCONSIN

CITY           SKY/WX    TMP DP  RH WIND       PRES   REMARKS
ANTIGO         CLOUDY    58  57  94 N12       29.86R
SHAWANO        CLOUDY    62  59  91 NW3       29.83R
6HR MIN TEMP:  60; 6HR MAX TEMP:  62; 6HR PCP:  0.02;

OCONTO         CLOUDY    62  62 100 N6        29.80R
6HR MIN TEMP:  61; 6HR MAX TEMP:  63;

STURGEON BAY   CLOUDY    61  57  88 NW5       29.82S
6HR MIN TEMP:  59; 6HR MAX TEMP:  63; 6HR PCP:  0.70;

GREEN BAY      MOSUNNY   63  61  93 N12       29.80R
6HR MIN TEMP:  62; 6HR MAX TEMP:  64;

MANITOWOC      CLOUDY    64  62  93 MISG      29.77R FOG
6HR MIN TEMP:  62; 6HR MAX TEMP:  64;

APPLETON       PTSUNNY   61  61 100 N8        29.81R FOG
CLINTONVILLE   MOSUNNY  N/A N/A N/A N8        29.82S
OSHKOSH        CLOUDY    62  58  86 N14G21    29.81R
6HR MIN TEMP:  59; 6HR MAX TEMP:  62;

$$

WIZ032>034-041-042-053>061-301300-
SOUTHWEST WISCONSIN

CITY           SKY/WX    TMP DP  RH WIND       PRES   REMARKS
LA CROSSE      PTSUNNY   61  60  97 N6        29.87R FOG
6HR MIN TEMP:  60; 6HR MAX TEMP:  61;

SPARTA         CLOUDY    56  55  99 CALM      29.88R FOG
6HR MIN TEMP:  52; 6HR MAX TEMP:  56; 6HR PCP:  0.01;

VIROQUA        CLOUDY    59  59 100 N5        29.87R VSB 1/2
6HR MIN TEMP:  57; 6HR MAX TEMP:  59;

BOSCOBEL       MOSUNNY   60  59  96 CALM      29.85S FOG
6HR MIN TEMP:  58; 6HR MAX TEMP:  61;

PRAIRIE DU CHI   N/A     59  58  96 CALM      29.85R FOG
6HR MIN TEMP:  58; 6HR MAX TEMP:  61;

PLATTEVILLE    SUNNY     59  59  99 CALM      29.85S
6HR MIN TEMP:  57; 6HR MAX TEMP:  61;

$$

WIZ056-057-062-063-064-067-068-301300-
SOUTH CENTRAL WISCONSIN

CITY           SKY/WX    TMP DP  RH WIND       PRES   REMARKS
REEDSBURG      CLOUDY    58  58  98 NW3       29.85R
6HR MIN TEMP:  56; 6HR MAX TEMP:  58;

BARABOO/DELLS  FOG       58  57  95 NW6       29.85R VSB 3/4
6HR MIN TEMP:  56; 6HR MAX TEMP:  58;

LONE ROCK      CLOUDY    59  59 100 CALM      29.86R FOG
6HR MIN TEMP:  57; 6HR MAX TEMP:  61;

MINERAL POINT  SUNNY     59  57  94 NW3       29.85S FOG
MADISON        PTSUNNY   61  58  90 NW6       29.83R FOG
6HR MIN TEMP:  59; 6HR MAX TEMP:  62;

MIDDLETON      PTSUNNY   61  60  99 NW6       29.84R
6HR MIN TEMP:  59; 6HR MAX TEMP:  61;

WATERTOWN      CLOUDY    59  59 100 NW5       29.81R
6HR MIN TEMP:  56; 6HR MAX TEMP:  61;

MONROE         PTSUNNY   59  57  94 NW7       29.83R FOG
JANESVILLE     CLOUDY    61  59  94 NW7       29.83R FOG
$$

WIZ051-052-058>065-066-070>072-301300-
SOUTHEAST WISCONSIN

CITY           SKY/WX    TMP DP  RH WIND       PRES   REMARKS
MILWAUKEE      MOSUNNY   63  57  81 NW7       29.78R
6HR MIN TEMP:  62; 6HR MAX TEMP:  65;

WAUKESHA       PTSUNNY   59  57  94 W6        29.81R FOG
MILWAUKEE/TIMM SUNNY     59  55  88 NW7       29.80R
RACINE         SUNNY     62  59  90 W7        29.80R
6HR MIN TEMP:  61; 6HR MAX TEMP:  64;

BURLINGTON     SUNNY     58  57  96 NW3       29.80R
6HR MIN TEMP:  55; 6HR MAX TEMP:  60;

KENOSHA        SUNNY     61  58  90 NW5       29.80R
6HR MIN TEMP:  59; 6HR MAX TEMP:  63;

FOND DU LAC    CLOUDY    61  59  93 NW8       29.80S FOG
6HR MIN TEMP:  58; 6HR MAX TEMP:  62;

SHEBOYGAN      PTSUNNY   63  60  90 NW8       29.77S FOG
6HR MIN TEMP:  58; 6HR MAX TEMP:  63;

WEST BEND      CLOUDY    59  57  94 NW6       29.80R FOG
JUNEAU         CLOUDY    59  58  97 NW8       29.82S FOG
6HR MIN TEMP:  57; 6HR MAX TEMP:  61;

$$

LSZ147-162-301300-
LAKE SUPERIOR

STATION/POSITION TIME  TEMP    WIND        PRES    WAVE
                       AIR SEA DIR/SP/G            HT/PER
                 (UTC) (F)     (DEG/KT/KT) (MB)    (FT/S)
W MID LAKE BUOY  1150   42 38  350/  4/  6 1014.7R   1
DEVILS ISLAND    1200   53      40/ 13/ 14 1014.9R
SAXON HARBOR     1140   55      50/ 17/ 20 1013.9R
$$

LMZ867-665-643>646-301300-
LAKE MICHIGAN

STATION/POSITION TIME  TEMP    WIND        PRES    WAVE
                       AIR SEA DIR/SP/G            HT/PER
                 (UTC) (F)     (DEG/KT/KT) (MB)    (FT/S)
CHAMBERS ISLAND  1100   63     340/  7/  8 1008.8R
S GREEN BAY BUOY 1200   65 71   20/ 12/ 16 1010.4R



USA.gov is the U.S. government's official web portal to all federal, state and local government web resources and services.